Location: Ellwangen
(48.9688°N, 10.1313°E)
Time: 04:58:49
(UTC+00:00)

Daily predictions for brighter satellites

Satellite Brightness Start Highest point End
(mag) Time Altitude Azimuth Time Altitude Azimuth Time Altitude Azimuth
USA 59 Rocket 3.1 03:08:36 11° ESE 03:08:36 11° ESE 03:08:45 10° ESE
SL-16 R/B 3.6 03:19:10 32° NE 03:19:19 32° NE 03:24:22 10° ESE
Cosmos 2082 Rocket 3.3 03:23:08 41° ENE 03:23:08 41° ENE 03:27:11 10° NE
USA 234 3.8 03:23:19 10° ENE 03:28:36 47° NNE 03:28:36 47° NNE
Cosmos 1980 Rocket 4.4 03:44:55 13° S 03:44:55 13° S 03:45:27 10° S
Cosmos 2369 4.5 03:51:16 42° SSE 03:51:16 42° SSE 03:54:55 10° SSE
NOSS 3-1 (C) 3.9 03:52:29 64° NW 03:53:52 89° NE 04:02:38 10° SE
Cosmos 841 Rocket 3.8 04:00:24 51° SSE 04:01:28 64° ESE 04:06:41 10° NNE
COSMOS 2455 3.1 04:07:00 53° SSW 04:07:00 53° SSW 04:11:53 10° SSE
Cosmos 2360 Rocket 3.3 04:09:26 24° N 04:12:16 39° NE 04:17:31 10° ESE
Cosmos 2333 Rocket 2.8 04:11:00 33° N 04:13:23 55° NE 04:19:01 10° SE
ATLAS 3B R/B 4.2 04:14:24 23° NNW 04:17:56 32° NNE 04:24:42 10° E
Nadezhda 4 Rocket 3.9 04:12:06 10° S 04:18:25 88° W 04:24:44 10° N
NOSS 3-4 (A) 4.5 04:23:03 28° NNW 04:23:03 28° NNW 04:27:57 10° NE
NOSS 3-4 (C) 4.4 04:23:12 28° NNW 04:23:12 28° NNW 04:28:07 10° NE
Cosmos 1892 Rocket 4.1 04:19:01 10° S 04:23:17 57° E 04:27:37 10° NNE
Cosmos-2242 4.0 04:24:05 20° NNE 04:26:41 44° ENE 04:30:42 10° SSE
Cosmos 1898 Rocket 4.1 04:29:28 40° SSW 04:29:28 40° SSW 04:33:14 10° S
Cosmos 2219 Rocket 3.6 04:25:49 16° N 04:29:43 34° NE 04:34:48 10° ESE
COSMO-SKYMED 1 2.7 04:27:18 10° SSE 04:31:23 66° ENE 04:32:40 41° N
IRS-1D 3.5 04:28:31 10° NNE 04:33:34 81° ESE 04:38:39 10° SSW
Meteor 2-20 4.4 04:29:02 10° N 04:35:11 82° E 04:41:16 10° SSE
Cosmos 2322 Rocket 2.6 04:32:25 24° NNW 04:35:49 61° ENE 04:41:26 10° SE
Orbus 7S? 3.6 04:48:21 38° NE 04:48:21 38° NE 04:50:33 10° E
Cosmos 1937 Rocket 3.7 04:49:25 43° WSW 04:49:31 43° WSW 04:54:20 10° S
Cosmos 858 Rocket 4.5 04:49:23 42° NW 04:50:51 58° WSW 04:55:55 10° S
BREEZE M DEB (TANK) 4.3 04:50:08 10° S 04:51:42 16° SE 04:53:49 10° E
USA 59 Rocket 1.7 04:54:18 20° SW 04:54:18 20° SW 04:56:55 10° S
BREEZE-M DEB (TANK) 3.7 04:55:04 26° ESE 04:55:04 26° ESE 04:56:06 10° ESE
Meteor 2-3 Rocket 3.6 04:48:33 10° SSW 04:54:16 71° WNW 04:59:57 10° N
Meteor 1-26 Rocket 4.1 04:49:32 10° NNW 04:55:06 89° W 05:00:48 10° S
Cosmos 1484 Rocket 3.7 04:52:27 10° NNE 04:55:45 43° E 04:58:58 10° S
Meteor 2-20 Rocket 4.3 04:51:09 10° N 04:56:58 85° E 05:02:40 10° S
Cosmos 2058 Rocket 2.9 04:54:41 19° NNW 04:57:49 83° W 05:02:13 10° S
SKYMED 2 3.8 04:55:41 10° S 04:59:50 44° W 05:00:14 43° W
COSMOS 2406 3.2 04:55:16 13° SW 05:00:16 60° WNW 05:05:54 10° NNE
NOSS 3-1 (A) 4.0 04:57:15 25° NW 05:01:54 78° SW 05:10:44 10° SSE
SL-16 R/B 2.3 05:01:03 30° NW 05:03:42 54° WSW 05:09:11 10° S
Cosmos 2082 Rocket 2.8 05:05:01 32° WNW 05:06:03 34° NW 05:11:09 10° NNE
COSMOS 2428 4.4 05:01:48 10° NNW 05:06:37 27° NE 05:11:24 10° ESE
CZ-4 R/B 3.7 05:02:26 10° N 05:07:00 58° WNW 05:11:31 10° SSW
SeaSat 1 4.1 05:05:14 10° N 05:07:30 17° NNW 05:07:30 17° NNW
Cosmos 1627 Rocket 4.3 05:02:59 10° SSW 05:09:03 70° WNW 05:15:13 10° N
ATLAS 5 CENTAUR R/B 3.5 05:10:38 10° N 05:10:38 10° N 05:10:45 10° N
USA 234 3.8 05:05:47 10° ENE 05:11:58 46° N 05:15:57 22° NW
BREEZE-M DEB (TANK) 2.5 05:12:02 50° W 05:12:39 90° NW 05:14:54 10° E
Okean 1 2.9 05:11:24 28° NNW 05:13:07 67° W 05:16:38 10° S
Helios 1A Rocket 2.8 05:12:37 10° S 05:15:47 39° W 05:15:55 39° W
CZ-2C R/B 4.4 05:12:30 10° NNW 05:13:16 13° NNW 05:13:16 13° NNW
Cosmos 1814 Rocket 4.3 05:11:29 10° SSW 05:16:41 71° ESE 05:21:59 10° NNE
NOAA 12 4.2 05:12:11 10° N 05:17:18 51° WNW 05:22:22 10° SW
DMSP B5D1-3 4.4 05:14:18 10° SSE 05:19:25 79° WSW 05:24:33 10° NNW
IRIDIUM 114 4.5 05:15:14 10° S 05:20:26 78° E 05:25:41 10° N
CBERS-1 4.4 05:16:15 10° NNE 05:21:21 67° ESE 05:26:24 10° S
Cosmos 2285 Rocket 4.0 05:17:15 10° NNW 05:23:40 84° WSW 05:30:05 10° SSE
BREEZE-M DEB (TANK) 2.6 05:23:26 35° W 05:24:28 80° N 05:29:38 10° E
BREEZE-M DEB (TANK) 3.3 05:24:35 23° WSW 05:26:19 47° S 05:32:58 10° ESE
Cosmos 2278 4.1 05:24:16 20° NW 05:27:41 41° WSW 05:32:55 10° S
IRIDIUM 103 4.3 05:24:23 10° S 05:29:35 89° W 05:34:51 10° N
SL-4 R/B 1.3 05:28:33 32° WNW 05:29:54 75° SSW 05:33:04 10° ESE
Cosmos 2151 3.9 05:27:37 10° SSE 05:31:32 48° E 05:35:30 10° NNE
Cosmos 1758 Rocket 3.6 05:28:53 10° S 05:33:18 85° ESE 05:37:43 10° N
Cosmos 2026 Rocket 4.2 05:28:32 10° SW 05:34:18 45° WNW 05:40:09 10° N
NOSS 8 (A) 4.2 05:33:10 29° WNW 05:34:25 59° SW 05:37:38 10° SSE
CZ-2D R/B 4.5 05:32:03 10° NNE 05:35:02 36° E 05:37:59 10° SSE
Cosmos 2221 2.7 05:31:21 10° N 05:35:31 69° E 05:39:36 10° SSE
Thor Agena Rocket 3.9 05:34:28 10° NNE 05:39:32 67° ESE 05:44:31 10° S
Cosmos 1238 Rocket 4.3 05:39:57 10° NNE 05:42:23 25° ENE 05:44:48 10° SE
Cosmos 405 Rocket 2.2 05:39:49 10° SSW 05:43:03 61° WNW 05:46:19 10° N
SL-16 R/B 4.5 05:41:13 10° N 05:43:12 12° NNE 05:45:11 10° NE
Cosmos 1707 3.0 05:43:02 10° N 05:46:08 52° ENE 05:49:11 10° SSE
IRIDIUM 106 4.3 05:42:46 10° SSW 05:47:57 64° W 05:53:09 10° N
Cosmos 158 Rocket 3.9 05:43:28 10° SSW 05:48:48 78° WNW 05:54:03 10° NNE
KORONAS-FOTON 3.7 05:50:22 10° N 05:53:44 69° ENE 05:57:04 10° SSE
Cosmos 2360 Rocket 2.7 05:51:12 11° NW 05:56:18 41° WSW 06:01:31 10° S
S3M 4.1 05:50:07 10° N 05:56:21 84° E 06:02:29 10° S
Cosmos 1626 Rocket 3.8 05:52:05 10° SSW 05:56:22 49° WNW 06:00:39 10° N
Cosmos 2333 Rocket 3.1 05:53:03 12° NW 05:57:22 29° WSW 06:02:13 10° SSW
Cosmos 1553 Rocket 4.3 05:51:43 10° NNW 05:57:50 50° W 06:03:58 10° SSW
SMAP 3.0 05:55:13 10° NNE 05:59:54 84° WNW 06:04:34 10° SSW
Cosmos 1833 4.2 05:55:10 10° SSW 06:00:49 79° WNW 06:06:34 10° NNE
SL-08 R/B 4.0 05:58:35 10° SE 06:03:04 53° ENE 06:07:38 10° N
Cosmos-2242 4.3 06:00:27 10° NW 06:03:23 20° W 06:06:25 10° SW
Cosmos 1842 3.3 06:01:03 10° N 06:04:23 63° E 06:07:39 10° SSE
Landsat 7 3.8 06:00:30 10° NNE 06:05:12 90° N 06:09:51 10° SSW
Cosmos 2237 Rocket 3.7 06:02:08 10° NNW 06:07:08 31° NE 06:12:05 10° ESE
COSMO-SKYMED 1 4.2 06:05:01 10° WSW 06:07:09 14° W 06:08:59 11° WNW
Cosmos 1125 Rocket 3.5 06:03:01 10° NNW 06:08:17 73° WSW 06:13:29 10° SSE
ATLAS 3B R/B 3.3 06:02:17 10° NW 06:10:10 67° NE 06:17:40 10° SE
Meteor 1-10 Rocket 4.3 06:04:38 10° NNW 06:10:33 79° W 06:16:29 10° S
BREEZE-M DEB (TANK) 4.4 06:09:30 10° SW 06:11:40 33° SSE 06:14:43 10° E
Cosmos 2219 Rocket 2.5 06:08:24 10° NW 06:13:51 50° WSW 06:19:15 10° S
Meteor 1-19 Rocket 4.4 06:10:10 10° NNW 06:15:55 67° W 06:21:47 10° S
NOSS 0 Rocket 4.5 06:11:39 10° NNW 06:17:48 59° NE 06:23:58 10° SE
Cosmos 2322 Rocket 3.3 06:14:51 10° NW 06:19:26 25° WSW 06:23:59 10° SSW
BREEZE-M DEB (TANK) 3.9 06:05:29 10° W 06:21:34 86° N 06:25:37 10° E
Okean 1-7 Rocket 3.6 06:21:38 10° SSW 06:26:06 65° WNW 06:30:33 10° N
YAOGAN 11 4.1 06:22:28 10° SSE 06:26:50 87° ENE 06:31:10 10° NNW
IGS 5A 4.5 06:23:57 10° NNW 06:27:09 23° WNW 06:30:19 10° WSW
Cosmos 1812 Rocket 4.2 06:23:34 10° NNW 06:27:32 36° W 06:31:29 10° SSW
Cosmos 1484 Rocket 4.1 06:26:15 10° NNW 06:28:18 15° WNW 06:30:20 10° W
Cosmos 2322 3.8 06:23:23 10° NNW 06:29:05 86° WSW 06:34:45 10° SSE
Cosmos 2266 Rocket 4.1 06:26:16 10° SSW 06:32:32 59° WNW 06:38:47 10° N
